Вернуться в каталог

HULIANWANG DIGUI-116

АктивенСвязьPO
NORAD 66955·PAYLOAD·🇨🇳 China

Запущен Dec 8, 2025 с Taiyuan Satellite Launch Center

Loading…

Ближайшие Пролёты (ближайшие 24 часа)

TLE

СвежийSource: Space-Track

Эпоха: Sep 13, 2026, 12:26 UTC

1 66955U 25287C   26256.51811156 -.00000007  00000-0 -49505-4 0  9990
2 66955  86.4838 252.3679 0001539  85.3304 274.8006 13.24405828 37032

Отслеживайте HULIANWANG DIGUI-116 в реальном времени с AllMySat

Download on the App Store